Regional Weather Roundup
Issued by NWS

Home | Current Version | Previous Version | Graphics & Text | Print | Product List | Glossary Off
Versions: 1 2 3 4 5 6 7 8 9 10 11 12 13 14 15 16 17 18 19 20 21 22 23 24 25 26 27 28 29 30 31 32 33 34 35 36 37 38 39 40 41 42 43 44 45 46 47 48 49 50

567
ASUS43 KFSD 211302
RWRSD

WEATHER ROUNDUP FOR SOUTH DAKOTA
NATIONAL WEATHER SERVICE SIOUX FALLS SD
700 AM CST SAT JAN 21 2017

NOTE: "FAIR" INDICATES FEW OR NO CLOUDS BELOW 12,000 FEET WITH NO
SIGNIFICANT WEATHER AND/OR OBSTRUCTIONS TO VISIBILITY.


SDZ001>005-009-010-012>017-211400-
NORTHWEST AND NORTH CENTRAL SOUTH DAKOTA

CITY           SKY/WX    TMP DP  RH WIND       PRES   REMARKS
BUFFALO          N/A     30  28  92 W14       29.26S WCI  19
FAITH            N/A     30  30 100 NW14      29.31R WCI  19
MOBRIDGE       CLOUDY    28  24  85 NW8       29.30R WCI  20
$$

SDZ012>016-024>037-041>051-057-063-072>074-211400-
SOUTHWEST AND SOUTH CENTRAL SOUTH DAKOTA

CITY           SKY/WX    TMP DP  RH WIND       PRES   REMARKS
RAPID CTY ARPT CLEAR     29  27  92 NW10      29.34S WCI  20
PIERRE         CLOUDY    26  25  96 NW8       29.34R WCI  18
CUSTER         CLEAR     25  22  88 CALM      29.30F
ELLSWORTH AFB  CLOUDY    27  27 100 NW5       29.33S WCI  21
PHILIP         CLOUDY    35  32  88 W10       29.34R WCI  27
PINE RIDGE     CLOUDY    26  25  96 SW6       29.36S WCI  19
SPEARFISH      FAIR      28  27  93 W7        29.35R WCI  21
WINNER         PTSUNNY   29  27  92 W3        29.35R
$$

SDZ004>011-016>023-039-040-211400-
NORTHEAST SOUTH DAKOTA

CITY           SKY/WX    TMP DP  RH WIND       PRES   REMARKS
ABERDEEN       CLOUDY    28  25  88 W8        29.34R WCI  20
WATERTOWN      CLOUDY    34  34 100 SE6       29.32S FOG     WCI  29
BROOKINGS      LGT RAIN  34  34 100 S7        29.33R VSB 1/2 WCI  28
SISSETON         N/A     33  33 100 SE7       29.36S WCI  27
$$

SDZ017-020-022-023-036>040-048>070-211400-
SOUTHEAST SOUTH DAKOTA

CITY           SKY/WX    TMP DP  RH WIND       PRES   REMARKS
SIOUX FALLS    FOG       36  36 100 S5        29.34S VSB 1/4
HURON          CLOUDY    26  26 100 NW7       29.35R WCI  18
CHAMBERLAIN    CLOUDY    28  28 100 W7        29.35S WCI  21
MITCHELL       CLOUDY    28  26  92 W12       29.37R WCI  18
YANKTON        CLOUDY    36  34  93 W7        29.35R
$$

ABBREVIATIONS USED IN REMARKS
   TC - TEMPERATURE IN CELSIUS
  WCI - WIND CHILL INDEX
   HX - HEAT INDEX
  VSB - VISIBILITY





USA.gov is the U.S. government's official web portal to all federal, state and local government web resources and services.